#timestamp,LO_Frequency,Hit,StdDev 
1690999215.0,286046997.3,N
1690999215.9,286046997.3,N
1690999235.8,286046997.1,N
1690999255.6,286046997.7,N
1690999275.5,286046997.3,N
1690999295.3,286046998.0,N
1690999315.1,286046997.4,N
1690999335.9,286046996.5,Y
1690999355.7,286046998.7,P
1690999375.6,286047001.2,N
1690999395.4,286046998.9,N
1690999415.2,286046998.2,N
1690999435.1,286046999.5,N
1690999436.0,286046999.5,N
1690999455.8,286046998.9,N
1690999475.7,286046998.8,N
1690999495.5,286046999.3,N
1690999515.3,286046999.1,N
1690999535.2,286046998.9,N
1690999555.9,286046999.0,N
1690999575.7,286046999.2,N
1690999595.6,286046999.0,N
1690999615.4,286046998.9,N
1690999635.3,286046999.3,N
1690999655.1,286046999.2,N
1690999656.0,286046999.2,N
1690999675.8,286046999.6,N
1690999695.7,286046999.0,N
1690999715.5,286046998.3,N
1690999735.3,286046998.7,N
1690999755.2,286046998.3,N
1690999775.0,286046998.3,N
1690999775.9,286046998.3,N
1690999795.8,286046998.6,N
1690999815.6,286046998.3,N
1690999835.4,286046999.1,N
1690999855.3,286046998.9,N
1690999875.1,286046999.0,N
1690999895.9,286046999.2,N
1690999915.7,286046999.5,N
1690999935.5,286046996.6,Y
1690999955.4,286046998.6,P
1690999975.2,286046998.6,P
1690999995.0,286047001.2,P
1690999996.0,286047001.2,N
1691000015.8,286046998.6,N
1691000035.6,286046998.3,N
1691000055.5,286046998.1,N
1691000075.3,286046999.3,N
1691000095.1,286046999.0,N
1691000115.9,286046998.8,N
1691000135.7,286046998.2,N
1691000155.6,286046999.3,N
1691000175.4,286046999.3,N
1691000195.2,286046998.3,N
1691000215.1,286046998.1,N
1691000216.0,286046998.1,N
1691000235.8,286046998.8,N
1691000255.7,286046996.5,Y
1691000275.5,286047000.5,P
1691000295.3,286046998.2,N
1691000315.2,286046998.1,N
1691000335.9,286047000.6,N
1691000355.7,286047001.2,N
1691000405.6,286047001.1,E
1691000415.5,286046999.4,N
1691000435.4,286046999.4,P
1691000455.2,286046996.9,P
1691000475.0,286046997.1,N
1691000475.9,286046997.1,N
1691000495.8,286046996.7,N
1691000515.6,286046996.7,N
1691000535.5,286046996.5,Y
1691000555.3,286047000.5,P
1691000575.1,286047000.7,N
1691000595.9,286047000.9,N
1691000615.7,286047000.0,N
1691000635.5,286047000.9,N
1691000655.4,286047000.7,N
1691000675.2,286047000.9,N
1691000695.1,286047000.7,N
1691000696.0,286047000.7,N
1691000715.8,286047000.7,N
1691000735.6,286046998.1,N
1691000755.5,286047000.8,N
1691000775.3,286047000.8,N
1691000795.1,286047000.5,N
1691000815.9,286046998.1,N
1691000835.7,286047001.2,N
1691000855.6,286047000.7,N
1691000875.4,286047000.0,N
1691000895.2,286046998.1,N
1691000915.1,286047000.4,N
1691000916.0,286047000.4,N
1691000935.8,286047000.3,N
1691000955.6,286046999.8,N
1691000975.5,286047000.4,N
1691000995.3,286047000.0,N
1691001015.2,286047000.3,N
1691001035.9,286047000.0,N
1691001055.7,286046999.7,N
1691001075.6,286047002.8,N
1691001095.4,286047002.4,N
1691001115.2,286047000.6,N
1691001135.1,286047000.6,N
1691001136.0,286047000.6,N
1691001155.8,286046998.1,N
1691001175.7,286047000.8,N
1691001195.5,286047000.7,N
1691001215.3,286047000.9,N
1691001235.2,286046998.1,N
1691001255.0,286047001.1,N
1691001255.9,286047001.1,N
1691001275.7,286046998.7,N
1691001295.6,286046998.8,N
1691001315.4,286046999.3,N
1691001335.3,286046998.2,N
1691001355.1,286046999.3,N
1691001356.0,286046999.3,N
1691001375.8,286046999.3,N
1691001395.7,286046999.3,N
1691001415.5,286046998.9,N
1691001435.3,286046999.3,N
1691001455.2,286046999.1,N
1691001475.0,286046999.4,N
1691001475.9,286046999.4,N
1691001495.8,286046998.4,N
1691001515.6,286046999.1,N
1691001535.4,286046998.8,N
1691001555.3,286046999.0,N
1691001575.1,286046998.6,N
1691001595.8,286046998.9,N
1691001615.7,286046998.7,N
1691001635.5,286046998.7,N
1691001655.4,286046996.5,Y
1691001675.2,286046999.3,P
1691001695.0,286046996.8,P
1691001695.9,286046996.8,N
1691001715.8,286046996.8,N
1691001735.6,286046996.8,N
1691001755.5,286046996.8,N
1691001775.3,286046996.9,N
1691001795.1,286046998.7,N
1691001815.9,286047000.7,N
1691001835.7,286046999.8,N
1691001855.5,286046999.7,N
1691001875.4,286047000.2,N
1691001895.2,286047002.8,N
1691001915.1,286047002.4,N
1691001916.0,286047002.4,N
1691001935.8,286047000.2,N
1691001955.6,286047002.8,N
1691001975.5,286047001.7,N
1691001995.3,286047004.0,N
1691002015.1,286047004.4,N
1691002035.9,286047001.4,N
1691002055.7,286047004.2,N
1691002075.6,286047001.3,N
1691002095.4,286046999.7,N
1691002115.2,286046999.8,N
1691002135.1,286047000.0,N
1691002136.0,286047000.0,N
1691002155.8,286047000.0,N
1691002175.6,286047000.9,N
1691002195.5,286047000.4,N
1691002215.3,286047000.1,N
1691002235.2,286047002.5,N
1691002255.0,286047002.6,N
1691002255.9,286047002.6,N
1691002275.8,286047000.0,N
1691002295.6,286047002.2,N
1691002315.4,286047002.7,N
1691002335.3,286047002.2,N
1691002355.1,286047001.7,N
1691002375.8,286047002.6,N
1691002395.7,286047000.1,N
1691002415.5,286047002.7,N
1691002435.4,286047001.9,N
1691002455.2,286047002.1,N
1691002475.0,286047002.0,N
1691002475.9,286047002.0,N
1691002495.8,286047001.3,N
1691002515.6,286047001.9,N
1691002535.4,286047001.5,N
1691002555.3,286047001.9,N
1691002575.1,286047001.3,N
1691002595.9,286047003.6,Y
1691002615.7,286047002.0,P
1691002635.5,286047004.3,P
1691002655.4,286047001.7,N
1691002675.2,286047002.3,N
1691002695.0,286047001.3,N
1691002696.0,286047001.3,N
1691002715.8,286047001.4,N
1691002735.6,286047001.6,N
1691002755.5,286046999.8,N
1691002775.3,286047002.7,N
1691002795.1,286046999.7,N
